[[{"header":{"parameterUnit":"m.s-1","parameterCategory":1,"la1":30.2991,"la2":30.254,"lo1":-89.0895,"lo2":-89.0444,"dy":0.0017,"dx":0.0017,"nx":28,"ny":28,"refTime":"2024-06-28T03:00:00:Z","depth":0,"parameterNumber":2,"parameterNumberName":"U-component_of_WINDS"},"data":[0,0,0,0,0,0,0,0,0,0,0,0,0,0,0,0,0,0,0,0,0,0,0,0,0,0,0,0,0,0,0,0,0,0,0,0,0,0,0,0,0,0,0,0,0,0,0,0,0,0,0,0,0,0,0,0,0,0,2.0669,2.067,0,2.0801,2.0803,2.0804,2.0828,2.0827,2.0825,2.0824,2.096,2.0964,2.0969,0,0,0,0,0,0,0,0,0,0,0,0,0,2.0435,2.0439,2.0669,2.067,2.0672,2.0801,2.0803,2.0804,2.0828,2.0827,2.0825,2.0824,2.0958,2.0964,2.0969,0,0,0,0,0,0,0,0,0,0,0,0,0,2.0549,2.0441,2.0668,2.0699,2.0703,2.08,2.0803,2.0805,2.0828,2.0826,2.0825,2.0823,2.0957,2.0963,2.097,2.1046,0,0,2.0991,2.0994,0,0,0,0,0,0,0,0,2.0542,2.0557,2.0693,2.0697,2.0702,2.0796,2.077,2.0886,2.0829,2.0781,2.0824,2.0823,2.0907,2.0918,2.0946,2.1052,2.1058,2.0992,2.0996,2.0999,2.1001,0,0,0,0,0,0,0,2.0534,2.0552,2.0721,2.0695,2.07,2.0706,2.072,2.0792,2.0851,2.0785,2.0787,2.0802,2.0909,2.0939,2.0949,2.106,2.0992,2.0998,2.1002,2.1005,2.1233,2.1235,0,0,0,0,0,0,2.0521,2.0545,2.0717,2.0725,2.0617,2.0712,2.0728,2.0768,2.0851,2.0862,2.0803,2.0803,2.0928,2.0941,2.0954,2.1047,2.0999,2.1006,2.101,2.1231,2.1234,2.1236,0,0,0,0,0,0,2.0516,2.0536,2.0711,2.0636,2.0658,2.0717,2.0762,2.0771,2.0802,2.0865,2.0875,2.0824,2.0928,2.0945,2.1023,2.1052,2.1009,2.1015,2.1229,2.1232,2.1235,2.1235,0,0,0,0,0,0,2.0509,2.0534,2.0564,2.0636,2.0662,2.0778,2.0764,2.0775,2.0813,2.0814,2.0887,2.0897,2.0928,2.1012,2.1029,2.1061,2.1021,2.1227,2.123,2.1234,2.1232,2.1237,2.1241,0,0,0,0,0,2.0501,2.0559,2.0565,2.0586,2.0701,2.078,2.0794,2.0828,2.0816,2.0846,2.0886,2.0895,2.1046,2.102,2.104,2.1074,2.1225,2.1229,2.1234,2.123,2.1236,2.1241,0,0,0,0,0,0,2.0489,2.0569,2.0577,2.066,2.0713,2.0783,2.0822,2.0834,2.0891,2.0889,2.0929,2.0945,2.1021,2.1055,2.1024,2.1151,2.1135,2.1143,2.1125,2.1132,2.1136,2.1126,2.1026,0,0,0,0,0,2.0496,2.0554,2.062,2.0687,2.0713,2.0763,2.0799,2.082,2.0876,2.0899,2.0945,2.0999,2.1058,2.1097,2.1156,2.1237,2.1253,2.1271,2.1275,2.1278,2.1285,2.133,2.1338,2.125,2.125,2.125,0,0,2.0511,2.0562,2.0596,2.0686,2.073,2.0788,2.0782,2.0844,2.0887,2.0908,2.0984,2.102,2.1083,2.1162,2.12,2.1194,2.1313,2.1284,2.1286,2.1291,2.1335,2.1343,2.1351,2.1253,2.1252,2.1252,0,0,2.0569,2.0613,2.0674,2.0717,2.0782,2.0815,2.0829,2.0898,2.0922,2.0999,2.1016,2.1068,2.117,2.1214,2.1249,2.1321,2.1331,2.1339,2.1363,2.1406,2.1413,2.1419,2.1444,2.1453,2.1346,2.1346,2.1346,0,2.0579,2.0668,2.0703,2.0764,2.0803,2.0824,2.0885,2.0925,2.1006,2.1032,2.1024,2.1152,2.1196,2.1285,2.1303,2.1331,2.1348,2.1331,2.1409,2.1416,2.1422,2.1446,2.1456,2.1346,2.1346,2.1346,2.1346,0,2.0677,2.0739,2.0779,2.0857,2.09,2.0961,2.1004,2.1044,2.1061,2.1094,2.1172,2.1225,2.1294,2.1317,2.1335,2.1409,2.1402,2.1401,2.1386,2.1431,2.1454,2.1463,2.1347,2.1347,2.1347,2.1347,0,0,2.0732,2.0827,2.0841,2.0876,2.0949,2.0997,2.1058,2.1125,2.1158,2.1213,2.1264,2.135,2.1349,2.1389,2.1412,2.1449,2.1502,2.1444,2.1446,2.1452,2.1585,2.1585,2.1596,2.1509,2.1511,2.1512,2.158,0,2.0797,2.0907,2.094,2.1032,2.1088,2.1108,2.1161,2.1212,2.1244,2.1296,2.1332,2.1391,2.1386,2.141,2.1448,2.1487,2.1529,2.1483,2.1556,2.1559,2.154,2.1608,2.1609,2.167,2.1589,2.1591,2.1592,0,2.0888,2.0945,2.1042,2.1107,2.1132,2.1179,2.1243,2.1292,2.1349,2.137,2.1414,2.1434,2.1497,2.1478,2.1566,2.1534,2.1565,2.1589,2.1592,2.16,2.1578,2.1617,2.1691,2.17,2.1607,2.1606,2.1605,0,2.0917,2.1017,2.1088,2.1117,2.1195,2.1228,2.1261,2.1317,2.1355,2.141,2.1435,2.1497,2.1531,2.1578,2.1613,2.1596,2.1698,2.1682,2.1716,2.1715,2.1736,2.1734,2.1815,2.1758,2.1758,2.1757,2.1757,0,2.0986,2.1045,2.1102,2.1145,2.1211,2.1248,2.1312,2.1347,2.1396,2.1446,2.1467,2.1514,2.1558,2.161,2.1638,2.1705,2.1721,2.1739,2.1745,2.1737,2.1734,2.1758,2.1754,2.176,2.1759,2.1759,2.1758,0,2.1029,2.107,2.1149,2.1215,2.1234,2.1279,2.1336,2.1379,2.1411,2.1475,2.1491,2.1543,2.1605,2.1645,2.1724,2.1743,2.1817,2.1822,2.1797,2.18,2.1832,2.1828,2.1931,2.1946,2.1878,2.1879,2.1879,0,2.1071,2.1116,2.1188,2.1223,2.1257,2.1314,2.1352,2.139,2.1429,2.1496,2.1531,2.1594,2.1647,2.1746,2.179,2.185,2.1857,2.1889,2.1866,2.1855,2.1856,2.1853,2.1857,2.1892,2.1893,2.1893,2.1893,0,2.114,2.1157,2.1212,2.1274,2.132,2.137,2.142,2.1448,2.1494,2.1536,2.16,2.1641,2.1722,2.1784,2.1849,2.1883,2.1896,2.19,2.1911,2.1902,2.1886,2.1894,2.1807,2.1898,2.1897,2.1897,2.1897,2.1897,2.1183,2.1224,2.128,2.1341,2.1382,2.1429,2.1472,2.1509,2.1563,2.1632,2.1651,2.1717,2.1771,2.1859,2.1894,2.1946,2.1942,2.1958,2.1962,2.1966,2.1965,2.1878,2.1958,2.1958,2.1958,2.1958,2.1958,0,2.1252,2.1289,2.1344,2.1414,2.1461,2.1469,2.1525,2.1563,2.1621,2.1671,2.1723,2.1795,2.1856,2.1904,2.1966,2.1998,2.2006,2.2013,2.2011,2.2018,2.1966,2.195,2.2006,2.2006,2.2006,2.2006,2.2006,2.2006,2.1294,2.1363,2.1387,2.1477,2.1514,2.1579,2.161,2.1652,2.1692,2.1772,2.1823,2.1854,2.1903,2.1968,2.2024,2.2036,2.2058,2.2064,2.2077,2.2028,2.2022,2.2017,2.2002,2.2068,2.2069,2.2126,2.2126,2.2126]},{"header":{"parameterUnit":"m.s-1","parameterCategory":1,"la1":30.2991,"la2":30.254,"lo1":-89.0895,"lo2":-89.0444,"dy":0.0017,"dx":0.0017,"nx":28,"ny":28,"refTime":"2024-06-28T03:00:00:Z","depth":0,"parameterNumber":3,"parameterNumberName":"V-component_of_WINDS"},"data":[0,0,0,0,0,0,0,0,0,0,0,0,0,0,0,0,0,0,0,0,0,0,0,0,0,0,0,0,0,0,0,0,0,0,0,0,0,0,0,0,0,0,0,0,0,0,0,0,0,0,0,0,0,0,0,0,0,0,6.3843,6.3844,0,6.3868,6.3869,6.3869,6.3838,6.3837,6.3836,6.3835,6.3857,6.3859,6.386,0,0,0,0,0,0,0,0,0,0,0,0,0,6.3766,6.3767,6.3843,6.3844,6.3844,6.3868,6.3869,6.3869,6.3838,6.3837,6.3835,6.3834,6.3857,6.3859,6.3861,0,0,0,0,0,0,0,0,0,0,0,0,0,6.3796,6.3768,6.3843,6.3832,6.3831,6.3868,6.3869,6.3869,6.3839,6.3837,6.3835,6.3834,6.3856,6.3858,6.3861,6.391,0,0,6.3868,6.387,0,0,0,0,0,0,0,0,6.3794,6.3799,6.3833,6.3833,6.3832,6.3848,6.3849,6.3883,6.3839,6.3836,6.3835,6.3833,6.3855,6.3858,6.3866,6.3911,6.3912,6.3869,6.387,6.3871,6.3872,0,0,0,0,0,0,0,6.3792,6.3797,6.3853,6.3834,6.3833,6.3824,6.3826,6.3856,6.3855,6.3836,6.3833,6.3837,6.3855,6.3864,6.3867,6.3912,6.3869,6.3871,6.3872,6.3873,6.3998,6.4,0,0,0,0,0,0,6.3792,6.3796,6.3852,6.3854,6.3808,6.3827,6.383,6.3845,6.3854,6.3854,6.3838,6.3836,6.3861,6.3864,6.3867,6.3925,6.3871,6.3874,6.3875,6.3996,6.3999,6.4001,0,0,0,0,0,0,6.379,6.3797,6.3851,6.3824,6.3831,6.383,6.3847,6.3846,6.3855,6.3856,6.3856,6.3848,6.3859,6.3864,6.39,6.3925,6.3875,6.3877,6.3994,6.3997,6.4,6.4041,0,0,0,0,0,0,6.3788,6.3797,6.3816,6.3825,6.3832,6.3885,6.3849,6.3848,6.386,6.3856,6.3865,6.3865,6.3858,6.3896,6.3902,6.3928,6.3879,6.3992,6.3996,6.3999,6.4037,6.4045,6.4051,0,0,0,0,0,6.3785,6.3826,6.3817,6.3824,6.3857,6.3886,6.389,6.3882,6.3862,6.3881,6.3882,6.3865,6.3922,6.39,6.3907,6.3933,6.399,6.3995,6.3998,6.4034,6.4043,6.4051,0,0,0,0,0,0,6.3819,6.3827,6.3817,6.3862,6.3874,6.3881,6.3904,6.3892,6.3909,6.3904,6.3893,6.3895,6.3934,6.3937,6.3913,6.3981,6.3952,6.3958,6.3977,6.3986,6.3993,6.3991,6.3881,0,0,0,0,0,6.3832,6.3856,6.3862,6.3901,6.3907,6.3905,6.3918,6.3911,6.3922,6.3926,6.3929,6.394,6.396,6.3973,6.3992,6.4038,6.4039,6.4059,6.4066,6.4072,6.4076,6.41,6.4109,6.4014,6.4014,6.4014,0,0,6.3858,6.3866,6.3882,6.3908,6.3916,6.394,6.3909,6.3936,6.3954,6.393,6.3964,6.3967,6.3978,6.4019,6.4037,6.4023,6.4103,6.4077,6.4082,6.4083,6.4105,6.4114,6.4122,6.4017,6.4016,6.4016,0,0,6.3919,6.3928,6.3961,6.397,6.3983,6.3981,6.3989,6.3998,6.3999,6.4034,6.4016,6.4037,6.4072,6.408,6.4089,6.4153,6.4137,6.4159,6.4195,6.4218,6.4226,6.4232,6.4254,6.4262,6.4164,6.4164,6.4164,0,6.395,6.3987,6.3979,6.4008,6.4019,6.4,6.4033,6.4042,6.406,6.4067,6.4052,6.4095,6.4101,6.4144,6.4159,6.4167,6.4175,6.4157,6.4225,6.4232,6.4238,6.4259,6.4267,6.4166,6.4166,6.4166,6.4166,0,6.4024,6.405,6.4075,6.4094,6.4108,6.4139,6.4135,6.415,6.4142,6.4142,6.4177,6.4183,6.4203,6.4213,6.4205,6.4254,6.4244,6.4227,6.4198,6.425,6.4269,6.4277,6.417,6.4169,6.4168,6.4168,0,0,6.4105,6.412,6.4129,6.4138,6.4151,6.417,6.4199,6.4219,6.4232,6.4246,6.4269,6.43,6.4284,6.4294,6.4287,6.4307,6.4356,6.4287,6.4287,6.4299,6.441,6.4422,6.4432,6.4347,6.4348,6.435,6.4409,0,6.4165,6.4217,6.4211,6.426,6.4284,6.4266,6.4291,6.4301,6.4302,6.4321,6.4321,6.4342,6.432,6.4326,6.4346,6.4346,6.4378,6.4342,6.4367,6.4368,6.4364,6.4442,6.4455,6.451,6.4416,6.4418,6.4419,0,6.4242,6.4259,6.4311,6.432,6.4329,6.4353,6.437,6.4389,6.44,6.4399,6.441,6.44,6.4428,6.4399,6.4438,6.4413,6.4423,6.4425,6.4427,6.4428,6.4396,6.4444,6.4528,6.4536,6.443,6.4429,6.4429,0,6.4295,6.4331,6.4366,6.4374,6.4386,6.4403,6.4408,6.4417,6.443,6.4445,6.4452,6.4471,6.448,6.4494,6.4488,6.4468,6.4527,6.4498,6.4526,6.4526,6.4538,6.4537,6.4624,6.4547,6.4546,6.4546,6.4546,0,6.4362,6.4394,6.439,6.4412,6.4447,6.444,6.4474,6.4478,6.4486,6.4507,6.4493,6.4513,6.4504,6.4523,6.4518,6.455,6.4555,6.4554,6.4552,6.4555,6.4555,6.456,6.4556,6.4548,6.4548,6.4547,6.4547,0,6.4427,6.4426,6.4463,6.4472,6.4475,6.45,6.4507,6.4527,6.4527,6.4553,6.4559,6.4558,6.458,6.4576,6.46,6.4596,6.4636,6.463,6.4633,6.4631,6.4659,6.4656,6.4751,6.4763,6.4679,6.468,6.468,0,6.447,6.4494,6.4506,6.4519,6.4526,6.4548,6.4561,6.4555,6.4568,6.4582,6.46,6.4621,6.4637,6.4672,6.4673,6.4691,6.4685,6.4717,6.4687,6.4689,6.4684,6.4682,6.4684,6.4722,6.4723,6.4724,6.4725,0,6.4545,6.4543,6.4562,6.4582,6.4598,6.4612,6.4625,6.4637,6.4632,6.4647,6.467,6.4683,6.4707,6.4727,6.4744,6.4748,6.4735,6.4734,6.4741,6.4744,6.4744,6.4743,6.4648,6.4732,6.4731,6.4731,6.473,6.473,6.4599,6.462,6.4631,6.4653,6.4662,6.4675,6.4694,6.4696,6.4715,6.4735,6.473,6.4756,6.4765,6.4787,6.4793,6.4812,6.48,6.4811,6.4813,6.4816,6.4818,6.4742,6.4815,6.4815,6.4815,6.4815,6.4814,0,6.4672,6.4679,6.4699,6.4719,6.4736,6.4723,6.4737,6.4752,6.4775,6.4785,6.4802,6.4827,6.4847,6.485,6.4868,6.4883,6.4877,6.4888,6.4886,6.4887,6.4829,6.482,6.4892,6.4892,6.4892,6.4892,6.4892,6.4892,6.4713,6.4747,6.4746,6.4785,6.4791,6.4816,6.4825,6.4836,6.4845,6.4874,6.4891,6.4893,6.49,6.4919,6.4936,6.4936,6.4943,6.4956,6.4953,6.4899,6.4891,6.4884,6.4876,6.4957,6.4958,6.501,6.501,6.5011]}]]